Location: Unspecified
(0.0000°N, 0.0000°E)
Time: 23:40:09
(UTC+00:00)

Transit 2A - All Passes

Search period start: 25 January 2021 00:00
Search period end: 04 February 2021 00:00
Orbit: 599 x 960 km, 66.7° (Epoch: 25 January)

Date Brightness Start Highest point End Pass type
(mag) Time Alt. Az. Time Alt. Az. Time Alt. Az.
25 Jan - 01:39:13 10° S 01:45:24 53° ESE 01:51:19 10° NE night (unlit)
25 Jan - 03:25:25 10° W 03:28:20 14° WNW 03:31:12 10° NW night (unlit)
25 Jan - 14:14:53 10° NW 14:19:04 50° WSW 14:23:29 10° S daylight
26 Jan - 01:05:36 10° S 01:11:15 33° ESE 01:16:40 10° NE night (unlit)
26 Jan - 02:49:28 10° WSW 02:54:12 22° WNW 02:58:47 10° NNW night (unlit)
26 Jan - 13:40:38 10° NNW 13:44:56 84° ENE 13:49:30 10° SSE daylight
27 Jan - 00:32:26 10° SSE 00:37:04 21° ESE 00:41:33 10° ENE night (unlit)
27 Jan - 02:14:24 10° SW 02:20:06 35° WNW 02:25:33 10° N night (unlit)
27 Jan - 13:06:45 10° N 13:10:51 43° ENE 13:15:09 10° SE daylight
28 Jan - 00:00:12 10° SE 00:02:51 13° ESE 00:05:28 10° E night (unlit)
28 Jan - 01:39:47 10° SSW 01:45:59 57° WNW 01:51:54 10° N night (unlit)
28 Jan - 12:33:17 10° NNE 12:36:45 24° ENE 12:40:21 10° SE daylight
28 Jan - 14:17:25 10° W 14:19:38 14° WSW 14:21:57 10° SW daylight
29 Jan - 01:05:30 10° SSW 01:11:52 89° WNW 01:17:55 10° NNE night (unlit)
29 Jan - 12:00:39 10° NE 12:02:40 13° ENE 12:04:42 10° E daylight
29 Jan - 13:41:54 10° NW 13:45:28 24° WSW 13:49:12 10° SSW daylight
30 Jan - 00:31:30 10° S 00:37:44 58° ESE 00:43:39 10° NNE night (unlit)
30 Jan - 02:18:26 10° W 02:20:38 12° WNW 02:22:50 10° NW night (unlit)
30 Jan - 13:07:09 10° NW 13:11:18 45° WSW 13:15:42 10° S daylight
30 Jan - 23:57:49 10° S 00:03:34 36° ESE 00:09:05 10° NE night (unlit)
31 Jan - 01:42:05 10° WSW 01:46:32 20° WNW 01:50:48 10° NNW night (unlit)
31 Jan - 12:32:50 10° NNW 12:37:10 86° WSW 12:41:46 10° SSE daylight
31 Jan - 23:24:32 10° SSE 23:29:23 23° ESE 23:34:05 10° ENE night (unlit)
01 Feb - 01:06:54 10° SW 01:12:25 32° WNW 01:17:41 10° N night (unlit)
01 Feb - 11:58:53 10° N 12:03:04 49° ENE 12:07:29 10° SE daylight
01 Feb - 22:52:01 10° SE 22:55:11 14° ESE 22:58:17 10° E night (unlit)
02 Feb - 00:32:12 10° SW 00:38:19 51° WNW 00:44:06 10° N night (unlit)
02 Feb - 11:25:19 10° NNE 11:28:59 27° ENE 11:32:49 10° SE daylight
02 Feb - 13:10:06 10° W 13:11:55 12° WSW 13:13:45 10° SW daylight
02 Feb - 23:57:51 10° SSW 00:04:12 82° WNW 00:10:11 10° NNE night (unlit)
03 Feb - 10:52:25 10° NE 10:54:54 15° ENE 10:57:25 10° ESE daylight
03 Feb - 12:34:18 10° WNW 12:37:42 22° WSW 12:41:17 10° SSW daylight
03 Feb - 23:23:47 10° S 23:30:04 64° ESE 23:35:59 10° NNE night (unlit)
